Regional Weather Roundup
Issued by NWS

Home | Current Version | Previous Version | Graphics & Text | Print | Product List | Glossary On
Versions: 1 2 3 4 5 6 7 8 9 10 11 12 13 14 15 16 17 18 19 20 21 22 23 24 25 26 27 28 29 30 31 32 33 34 35 36 37 38 39 40 41 42 43 44 45 46 47 48 49 50
668
ASUS43 KLMK 121810
RWRKY
KENTUCKY REGIONAL WEATHER ROUNDUP
NATIONAL WEATHER SERVICE LOUISVILLE KY
100 PM EST FRI FEB 12 2016

NOTE "FAIR" INDICATES FEW OR NO CLOUDS BELOW 12,000 FEET
WITH NO SIGNIFICANT WEATHER AND/OR OBSTRUCTIONS TO VISIBILITY.

KYZ001>023-026-027-061>063-070>075-121900-
WESTERN AND SOUTH CENTRAL KENTUCKY

CITY           SKY/WX    TMP DP  RH WIND       PRES   REMARKS
PADUCAH        CLOUDY    37  26  64 NW8       30.26S WCI  31
HENDERSON      CLOUDY    30  21  69 W7        30.24F WCI  23
OWENSBORO      CLOUDY    30  25  80 NW7       30.23F WCI  23
HOPKINSVILLE   PTSUNNY   36  28  75 NW9       30.21F WCI  29
BOWLING GREEN  CLOUDY    33  27  78 NW5       30.21F WCI  29
GLASGOW        CLOUDY    31  26  80 NW7       30.19F WCI  24
$$

KYZ024-025-028>034-038-045-046-053-121900-
NORTH CENTRAL KENTUCKY

CITY           SKY/WX    TMP DP  RH WIND       PRES   REMARKS
LOUISVILLE/SDF CLOUDY    33  19  56 W13       30.17F WCI  24
LOUISVILLE/LOU CLOUDY    31  20  63 W9        30.17F WCI  23
FORT KNOX      CLOUDY    32  23  68 W13       30.15F WCI  23
$$

KYZ035>037-039>044-047>052-055>060-089>105-121900-
NORTHEAST KENTUCKY

CITY           SKY/WX    TMP DP  RH WIND       PRES   REMARKS
LEXINGTON      CLOUDY    31  20  63 W12       30.11F WCI  22
COVINGTON      CLOUDY    27  18  69 SW8       30.11F WCI  19
FRANKFORT      CLOUDY    31  18  58 W8        30.13F WCI  23
$$

KYZ054-064>069-076>088-106>120-121900-
SOUTHEAST KENTUCKY

CITY           SKY/WX    TMP DP  RH WIND       PRES   REMARKS
JACKSON        FLURRIES  28  20  71 VRB3      30.09F
LONDON         CLOUDY    28  23  81 W6        30.12F WCI  22
SOMERSET       CLOUDY    28  25  86 CALM      30.17F
MIDDLESBORO    CLOUDY    30  29  95 CALM      30.12F FOG
MONTICELLO     FLURRIES  31  26  82 W9        30.18F WCI  23
$$





USA.gov is the U.S. government's official web portal to all federal, state and local government web resources and services.